Torna al catalogo

BREEZE-M DEB

LostMEO
NORAD 41545·DEBRIS·🇷🇺 Russia

Lanciato Dec 13, 2015 da Baikonur Cosmodrome

Loading…

Prossimi Passaggi (prossime 24 ore)

TLE

ObsoletoSource: Space-Track

Epoca: Nov 10, 2017, 20:34 UTC

1 41545U 15075F   17314.85761346 -.00000202 +00000-0 +00000-0 0  9998
2 41545 001.3971 099.3435 0258981 075.8166 286.9384 01.05636813007023

Traccia BREEZE-M DEB in tempo reale con AllMySat

Download on the App Store